Location: Unspecified
(29.9680°N, 0.0000°E)
Time: 16:16:24
(UTC+00:00)

Explorer 7 - Pass Details

Date: 28 June 2019
Orbit: 485 x 680 km, 50.3° (Epoch: 21 August)

Event Time Altitude Azimuth Distance (km) Brightness Sun altitude
Rises 04:06:43 0° 186° (S) 2,560 - -10.9°
Exits shadow 04:07:27 - 181° (S) 2,312 9.7 -10.8°
Reaches altitude 10° 04:09:34 10° 162° (SSE) 1,707 9.2 -10.4°
Maximum altitude 04:11:52 15° 125° (SE) 1,434 9.2 -10.0°
Drops below altitude 10° 04:14:14 10° 89° (E) 1,766 10.4 -9.6°
Sets 04:17:15 0° 66° (ENE) 2,703 12.4 -9.1°
